GW3178 Weather Reports


time (UTC)temp
F
wind
direction
speed
knots
gust
knots
rain 1hr
in
rain 24hr
in
rain mn
in
humidity
%
barometer
mb
20260510045100 53 137 0.0 0.0 0.00 0.01 0.01 98 1011.4
20260510044556 54 145 0.0 0.0 0.00 0.01 0.01 98 1011.6
20260510044054 53 146 0.0 0.0 0.00 0.01 0.01 98 1011.7
20260510043549 53 146 0.0 0.0 0.07 0.01 0.01 98 1011.6
20260510043045 53 150 0.0 0.0 0.07 0.01 0.01 97 1011.8
20260510042539 53 140 0.0 0.0 0.00 0.00 0.00 97 1011.8
20260510042034 53 154 0.0 0.0 0.00 0.00 0.00 97 1011.8
20260510041531 53 164 0.0 0.0 0.00 0.00 0.00 97 1011.7
20260510041029 53 161 0.0 0.0 0.00 0.00 0.00 97 1011.6
20260510040525 53 150 0.0 0.0 0.00 0.00 0.00 97 1011.6
20260510040021 53 167 0.0 0.0 0.00 0.36 0.36 97 1011.2
20260510035518 53 168 0.0 0.0 0.00 0.36 0.36 97 1011.3
20260510035017 53 180 0.0 0.0 0.00 0.36 0.36 97 1011.4
20260510034516 53 208 0.0 0.0 0.00 0.36 0.36 96 1010.6
20260510034012 53 160 0.0 0.0 0.00 0.36 0.36 95 1010.2
20260510033508 53 160 0.0 0.0 0.00 0.36 0.36 95 1010.4
20260510033007 53 157 0.0 0.0 0.00 0.36 0.36 94 1010.4
20260510032502 53 166 0.0 0.0 0.00 0.36 0.36 94 1010.4
20260510031957 54 171 0.0 0.0 0.00 0.36 0.36 94 1010.4
20260510031453 55 162 0.0 0.0 0.00 0.36 0.36 93 1010.3
20260510030949 55 157 0.0 0.0 0.00 0.36 0.36 92 1010.2
20260510030444 55 164 0.0 0.0 0.00 0.36 0.36 91 1010.2
20260510025942 55 158 0.0 0.0 0.00 0.36 0.36 91 1009.8
20260510025439 56 110 0.0 0.0 0.00 0.36 0.36 90 1009.8
20260510024937 56 141 0.0 0.0 0.00 0.36 0.36 88 1009.5
20260510024433 56 163 0.0 0.0 0.00 0.36 0.36 88 1009.2
20260510023929 56 129 0.0 0.0 0.00 0.36 0.36 88 1009.1
20260510023425 56 131 0.0 0.0 0.00 0.36 0.36 89 1009.2
20260510022923 56 163 0.0 0.0 0.00 0.36 0.36 89 1009.0
20260510022421 56 141 0.0 0.0 0.00 0.36 0.36 90 1009.4
20260510021920 57 114 0.0 0.0 0.00 0.36 0.36 87 1009.4
20260510021419 57 149 0.0 0.0 0.00 0.36 0.36 87 1009.4
20260510020915 57 124 0.0 0.0 0.00 0.36 0.36 87 1009.6
20260510020410 57 144 0.0 0.0 0.00 0.36 0.36 87 1009.5
20260510015906 57 171 0.0 0.0 0.00 0.36 0.36 88 1009.4
20260510015402 57 118 0.0 0.0 0.00 0.36 0.36 88 1009.4
20260510014857 57 139 0.0 0.0 0.00 0.36 0.36 87 1009.3
20260510014355 58 143 0.0 0.0 0.00 0.36 0.36 85 1009.3
20260510013851 58 117 0.0 0.0 0.00 0.36 0.36 85 1009.4
20260510013347 58 167 0.0 0.0 0.00 0.36 0.36 86 1009.1
20260510012847 58 113 0.0 0.0 0.00 0.36 0.36 86 1009.1
20260510012342 58 131 0.0 0.0 0.00 0.36 0.36 86 1009.1
20260510011837 58 147 0.0 0.0 0.00 0.36 0.36 86 1008.9
20260510011332 58 174 0.0 0.9 0.00 0.36 0.36 86 1009.0
20260510010829 58 152 0.0 0.0 0.00 0.36 0.36 86 1008.9
20260510010326 58 165 0.0 0.0 0.00 0.36 0.36 87 1008.8
20260510005823 58 163 0.0 0.0 0.00 0.36 0.36 87 1008.5
20260510005319 58 165 0.0 0.0 0.00 0.36 0.36 87 1008.7
20260510004817 58 128 0.0 0.0 0.00 0.36 0.36 87 1008.7
20260510004314 58 154 0.0 0.0 0.00 0.36 0.36 87 1008.4
20260510003812 58 157 0.0 0.0 0.00 0.36 0.36 87 1008.5
20260510003308 58 195 0.0 0.9 0.00 0.36 0.36 86 1008.5
20260510002807 58 136 0.0 0.0 0.00 0.36 0.36 87 1008.3
20260510002307 58 166 0.0 0.0 0.00 0.36 0.36 86 1008.4
20260510001801 59 145 0.0 0.9 0.00 0.36 0.36 86 1008.3
20260510001300 59 148 0.0 0.0 0.00 0.36 0.36 86 1008.3
20260510000754 59 167 0.0 0.0 0.00 0.36 0.36 85 1008.1
20260510000253 59 150 0.0 0.0 0.00 0.36 0.36 84 1008.1
20260509235750 60 108 0.0 0.0 0.00 0.36 0.36 84 1008.0
20260509235246 59 149 0.0 0.0 0.00 0.36 0.36 84 1007.9
20260509234742 60 147 0.0 0.0 0.00 0.36 0.36 85 1008.1
20260509234239 60 156 0.0 0.0 0.00 0.36 0.36 82 1007.9
20260509233737 60 152 0.0 0.0 0.00 0.36 0.36 83 1007.9
20260509233234 61 141 0.0 0.0 0.00 0.36 0.36 82 1007.9
20260509232730 61 144 0.0 0.0 0.00 0.36 0.36 81 1007.9
20260509232227 62 149 0.0 0.0 0.00 0.36 0.36 80 1007.8
20260509231724 62 140 0.0 0.0 0.00 0.36 0.36 80 1007.6
20260509231221 62 153 0.0 0.0 0.00 0.36 0.36 78 1007.9
20260509230719 61 214 0.0 0.0 0.00 0.36 0.36 81 1007.8
20260509230215 61 148 0.0 0.0 0.00 0.36 0.36 82 1007.8
20260509225711 61 148 0.0 0.0 0.00 0.36 0.36 82 1007.9
20260509225207 61 147 0.0 0.0 0.00 0.36 0.36 82 1007.8
20260509224702 61 165 0.0 0.0 0.00 0.36 0.36 82 1008.0
20260509224200 61 149 0.0 0.0 0.00 0.36 0.36 82 1007.8
20260509223656 61 151 0.0 0.0 0.00 0.36 0.36 83 1008.1
20260509223148 61 141 0.0 0.0 0.00 0.36 0.36 83 1008.2
20260509222645 62 133 0.0 0.0 0.00 0.36 0.36 82 1008.1
20260509222140 62 109 0.0 0.0 0.00 0.36 0.36 81 1007.9
20260509221636 62 171 0.0 0.0 0.00 0.36 0.36 78 1008.1
20260509221132 62 204 0.0 0.0 0.00 0.36 0.36 79 1008.0
20260509220628 61 180 0.0 0.0 0.00 0.36 0.36 83 1008.0
20260509220124 61 182 0.0 0.0 0.00 0.36 0.36 83 1008.0
20260509215620 61 167 0.0 0.0 0.00 0.36 0.36 81 1008.3
20260509215117 61 155 0.0 0.0 0.00 0.36 0.36 82 1008.1
20260509214614 61 125 0.0 0.0 0.00 0.36 0.36 79 1008.2
20260509214111 61 118 0.0 0.0 0.00 0.36 0.36 82 1008.3
20260509213602 61 140 0.0 0.0 0.00 0.36 0.36 86 1008.4
20260509213058 60 122 0.0 0.0 0.00 0.36 0.36 87 1008.3
20260509212555 60 122 0.0 0.0 0.00 0.36 0.36 88 1008.3
20260509212052 59 176 0.0 0.0 0.00 0.36 0.36 88 1008.5
20260509211548 59 176 0.0 0.0 0.00 0.36 0.36 92 1008.7
20260509211045 59 177 0.0 0.0 0.00 0.36 0.36 91 1008.6
20260509210541 59 172 0.0 0.0 0.00 0.36 0.36 91 1008.7
20260509210037 59 170 0.0 0.0 0.00 0.36 0.36 91 1008.6
20260509205532 59 155 0.0 0.0 0.00 0.36 0.36 91 1008.7
20260509205028 59 157 0.0 0.0 0.00 0.36 0.36 90 1008.7
20260509204524 59 127 0.0 0.0 0.00 0.36 0.36 91 1008.7
20260509204021 58 130 0.0 0.0 0.00 0.36 0.36 93 1008.3
20260509203516 57 205 0.9 0.9 0.00 0.36 0.36 92 1008.6
20260509203015 57 185 0.0 0.0 0.00 0.36 0.36 94 1008.9
20260509202509 57 172 0.0 0.0 0.00 0.36 0.36 95 1008.8
20260509202005 57 181 0.0 0.0 0.00 0.36 0.36 95 1008.8
20260509201500 57 167 0.0 0.0 0.00 0.36 0.36 95 1008.9
20260509200958 57 164 0.0 0.0 0.00 0.36 0.36 94 1008.8
20260509200452 56 173 0.0 0.0 0.00 0.36 0.36 96 1009.0
20260509195948 56 172 0.0 0.0 0.00 0.36 0.36 95 1009.1
20260509195439 56 163 0.0 0.0 0.00 0.36 0.36 96 1009.2
20260509194938 56 148 0.0 0.0 0.00 0.36 0.36 96 1009.2
20260509194434 56 161 0.0 0.0 0.07 0.36 0.36 96 1009.3
20260509193931 56 172 0.0 0.0 0.07 0.36 0.36 96 1009.1
20260509193431 56 158 0.0 0.0 0.05 0.35 0.35 95 1009.5
20260509192927 56 170 0.0 0.0 0.05 0.35 0.35 95 1009.6
20260509192424 56 160 0.0 0.0 0.00 0.34 0.34 95 1009.5
20260509191919 56 167 0.0 0.0 0.00 0.34 0.34 95 1009.3
20260509191415 56 160 0.0 0.0 0.00 0.34 0.34 94 1009.5
20260509190911 56 189 0.0 0.0 0.00 0.34 0.34 94 1009.6
20260509190408 55 148 0.0 0.0 0.00 0.34 0.34 94 1009.3
20260509185906 55 144 0.0 0.0 0.00 0.34 0.34 96 1009.6
20260509185403 55 179 0.0 0.0 0.07 0.34 0.34 97 1009.7
20260509184859 54 166 0.0 0.0 0.07 0.34 0.34 97 1009.4
20260509184356 54 167 0.0 0.0 0.00 0.33 0.33 97 1009.6
20260509183854 55 155 0.0 0.0 0.00 0.33 0.33 98 1009.5
20260509183348 55 135 0.0 0.0 0.00 0.33 0.33 98 1009.6
20260509182844 54 155 0.0 0.0 0.00 0.33 0.33 98 1009.5
20260509182342 54 153 0.0 0.0 0.05 0.33 0.33 98 1009.7
20260509181839 54 160 0.0 0.0 0.05 0.33 0.33 98 1009.5
20260509181336 54 120 0.0 0.0 0.05 0.33 0.33 99 1009.4
20260509180833 54 148 0.0 0.0 0.00 0.32 0.32 98 1009.8
20260509180329 54 150 0.0 0.0 0.00 0.32 0.32 98 1009.5
20260509175826 54 169 0.0 0.0 0.07 0.32 0.32 98 1009.3
20260509175322 54 109 0.0 0.0 0.07 0.32 0.32 98 1009.3
20260509174818 54 146 0.0 0.0 0.00 0.31 0.31 98 1009.6
20260509174314 54 153 0.0 0.0 0.00 0.31 0.31 98 1009.4
20260509173810 54 145 0.0 0.0 0.05 0.31 0.31 97 1009.7
20260509173306 53 150 0.0 0.0 0.05 0.31 0.31 97 1009.4
20260509172801 53 121 0.0 0.0 0.00 0.30 0.30 96 1009.6
20260509172253 53 127 0.0 0.0 0.07 0.30 0.30 96 1009.4
20260509171749 53 148 0.0 0.0 0.07 0.30 0.30 97 1009.7
20260509171245 54 163 0.0 0.0 0.00 0.29 0.29 97 1009.6
20260509170742 53 89 0.0 0.0 0.05 0.29 0.29 96 1009.5
20260509170238 53 113 0.0 0.0 0.12 0.29 0.29 97 1009.6
20260509165736 53 129 0.0 0.0 0.12 0.28 0.28 98 1009.6
20260509165232 53 153 0.0 0.0 0.05 0.27 0.27 98 1009.6
20260509164728 53 155 0.0 0.0 0.12 0.27 0.27 98 1009.6
20260509164224 53 155 0.0 0.0 0.12 0.26 0.26 98 1009.5
20260509163721 53 157 0.0 0.0 0.12 0.25 0.25 98 1009.4
20260509163217 53 134 0.0 0.0 0.14 0.24 0.24 98 1009.4
20260509162715 53 149 0.0 0.0 0.07 0.23 0.23 97 1009.6
20260509162210 53 118 0.0 0.0 0.05 0.22 0.22 98 1009.6
20260509161706 53 146 0.0 0.0 0.05 0.22 0.22 98 1009.8
20260509161203 53 165 0.0 0.0 0.05 0.22 0.22 97 1009.9
20260509160658 53 151 0.0 0.0 0.00 0.21 0.21 98 1010.0
20260509160154 53 158 0.0 0.0 0.00 0.21 0.21 98 1009.9
20260509155650 54 144 0.0 0.0 0.07 0.21 0.21 98 1009.9
20260509155146 53 148 0.0 0.0 0.07 0.21 0.21 98 1009.9
20260509154642 53 144 0.0 0.0 0.00 0.20 0.20 98 1009.7
20260509154139 53 166 0.0 0.0 0.00 0.20 0.20 98 1009.8
20260509153636 53 133 0.0 0.0 0.00 0.20 0.20 98 1010.1
20260509153133 53 152 0.0 0.0 0.00 0.20 0.20 99 1009.8
20260509152628 52 147 0.0 0.0 0.00 0.20 0.20 98 1010.0
20260509152126 52 146 0.0 0.0 0.00 0.20 0.20 98 1010.0
20260509151622 52 141 0.0 0.0 0.05 0.20 0.20 98 1010.3
20260509151120 52 149 0.0 0.0 0.05 0.20 0.20 98 1010.0
20260509150618 52 135 0.0 0.0 0.07 0.19 0.19 98 1010.0
20260509150116 51 153 0.0 0.0 0.07 0.19 0.19 98 1010.2
20260509145611 51 150 0.0 0.0 0.05 0.18 0.18 98 1010.2
20260509145107 51 130 0.0 0.0 0.12 0.18 0.18 99 1010.3
20260509144604 51 127 0.0 0.0 0.07 0.17 0.17 99 1010.3
20260509144101 51 153 0.0 0.0 0.05 0.16 0.16 99 1010.2
20260509143558 51 147 0.0 0.0 0.05 0.16 0.16 99 1010.2
20260509143056 51 148 0.0 0.0 0.07 0.15 0.15 99 1010.2
20260509142550 50 137 0.0 0.0 0.07 0.15 0.15 99 1010.4
20260509142047 51 150 0.0 0.0 0.05 0.14 0.14 99 1010.4
20260509141543 51 118 0.0 0.0 0.05 0.14 0.14 99 1010.1
20260509141040 51 155 0.0 0.0 0.07 0.13 0.13 99 1010.3
20260509140537 51 140 0.0 0.0 0.07 0.13 0.13 99 1010.4
20260509140035 51 154 0.0 0.0 0.05 0.12 0.12 99 1010.4
20260509135532 51 156 0.0 0.0 0.05 0.12 0.12 99 1010.5
20260509135030 50 148 0.0 0.0 0.00 0.11 0.11 99 1010.5
20260509134526 50 137 0.0 0.0 0.07 0.11 0.11 99 1010.5
20260509134024 50 150 0.0 0.0 0.07 0.11 0.11 99 1010.6
20260509133520 50 146 0.0 0.0 0.00 0.10 0.10 99 1010.6
20260509133018 50 148 0.0 0.0 0.00 0.10 0.10 99 1010.7
20260509132516 50 149 0.0 0.0 0.07 0.10 0.10 99 1010.7
20260509132014 50 115 0.0 0.9 0.07 0.10 0.10 99 1010.6
20260509131510 50 139 0.0 0.9 0.07 0.10 0.10 99 1010.6
20260509131007 50 144 0.0 0.0 0.00 0.09 0.09 99 1010.9
20260509130502 50 147 0.0 0.0 0.00 0.09 0.09 99 1010.6
20260509130000 50 148 0.0 0.0 0.00 0.09 0.09 99 1010.5
20260509125456 50 139 0.0 0.0 0.00 0.09 0.09 99 1010.6
20260509124952 50 149 0.0 0.0 0.05 0.09 0.09 99 1010.8
20260509124449 50 152 0.0 0.0 0.05 0.09 0.09 99 1010.8
20260509123946 50 154 0.0 0.0 0.00 0.08 0.08 99 1010.9
20260509123444 50 154 0.0 0.0 0.00 0.08 0.08 99 1010.8
20260509122939 50 154 0.0 0.0 0.00 0.08 0.08 99 1010.9
20260509122437 50 154 0.0 0.0 0.00 0.08 0.08 99 1010.9
20260509121933 50 154 0.0 0.0 0.00 0.08 0.08 99 1010.8
20260509121430 50 155 0.0 0.0 0.00 0.08 0.08 99 1011.0
20260509120928 50 155 0.0 0.0 0.00 0.08 0.08 99 1010.9
20260509120426 50 154 0.0 0.0 0.00 0.08 0.08 99 1010.9
20260509115924 50 155 0.0 0.0 0.00 0.08 0.08 99 1011.0
20260509115421 50 153 0.0 0.0 0.07 0.08 0.08 99 1010.9
20260509114918 50 153 0.0 0.0 0.07 0.08 0.08 99 1010.8
20260509114417 50 153 0.0 0.0 0.07 0.08 0.08 99 1010.7
20260509113916 50 153 0.0 0.0 0.00 0.07 0.07 99 1011.0
20260509113413 50 152 0.0 0.0 0.00 0.07 0.07 99 1010.9
20260509112910 50 152 0.0 0.0 0.00 0.07 0.07 99 1010.9
20260509112407 49 152 0.0 0.0 0.00 0.07 0.07 99 1010.9
20260509111904 0 0.0 0.0 0.00 0.00 0.00 1010.9
20260509111400 0 0.0 0.0 0.00 0.00 0.00 1011.0
20260509110858 49 150 0.0 0.0 0.00 0.07 0.07 99 1010.8
20260509110354 49 150 0.0 0.0 0.00 0.07 0.07 99 1011.0
20260509105853 49 150 0.0 0.0 0.00 0.07 0.07 99 1010.8
20260509105350 0 0.0 0.0 0.00 0.00 0.00 1010.8
20260509104847 49 147 0.0 0.0 0.00 0.07 0.07 99 1010.9
20260509104343 49 147 0.0 0.0 0.00 0.07 0.07 99 1011.1
20260509103841 49 145 0.0 0.0 0.00 0.07 0.07 99 1010.8
20260509103338 49 149 0.0 0.0 0.00 0.07 0.07 99 1010.9
20260509102837 49 148 0.0 0.0 0.05 0.07 0.07 99 1011.0
20260509102334 49 148 0.0 0.0 0.05 0.07 0.07 99 1010.9
20260509101830 49 148 0.0 0.0 0.00 0.06 0.06 99 1010.6
20260509101326 49 147 0.0 0.0 0.00 0.06 0.06 99 1010.6
20260509100824 49 147 0.0 0.0 0.00 0.06 0.06 99 1010.8
20260509100321 0 0.0 0.0 0.00 0.00 0.00 1010.8
20260509095817 49 129 0.0 0.0 0.00 0.06 0.06 99 1010.8
20260509095315 49 129 0.0 0.0 0.00 0.06 0.06 99 1010.6
20260509094812 49 143 0.0 0.0 0.00 0.06 0.06 99 1010.5
20260509094309 49 142 0.0 0.0 0.00 0.06 0.06 99 1010.7
20260509093806 49 149 0.0 0.0 0.00 0.06 0.06 99 1010.9
20260509093303 49 151 0.0 0.0 0.00 0.06 0.06 99 1010.9
20260509092802 49 152 0.0 0.0 0.00 0.06 0.06 99 1010.9
20260509092259 49 152 0.0 0.0 0.00 0.06 0.06 99 1011.0
20260509091757 0 0.0 0.0 0.00 0.00 0.00 1011.2
20260509091254 0 0.0 0.0 0.00 0.00 0.00 1011.2
20260509090751 49 150 0.0 0.0 0.00 0.06 0.06 99 1011.2
20260509090248 49 150 0.0 0.0 0.00 0.06 0.06 99 1011.3
20260509085746 0 0.0 0.0 0.00 0.00 0.00 1011.0
20260509085243 49 152 0.0 0.0 0.00 0.06 0.06 99 1011.2
20260509084739 49 152 0.0 0.0 0.00 0.06 0.06 99 1011.1
20260509084236 49 136 0.0 0.0 0.00 0.06 0.06 99 1010.9
20260509083734 49 131 0.0 0.0 0.00 0.06 0.06 99 1011.2
20260509083230 49 129 0.0 0.0 0.00 0.06 0.06 99 1011.1
20260509082727 49 146 0.0 0.0 0.00 0.06 0.06 99 1011.0
20260509082224 49 146 0.0 0.0 0.00 0.06 0.06 99 1011.1
20260509081720 49 146 0.0 0.0 0.00 0.06 0.06 99 1011.1
20260509081218 49 139 0.0 0.0 0.00 0.06 0.06 99 1010.9
20260509080716 49 136 0.0 0.0 0.00 0.06 0.06 99 1011.0
20260509080214 49 131 0.0 0.0 0.00 0.06 0.06 99 1011.0
20260509075712 0 0.0 0.0 0.00 0.00 0.00 1011.0
20260509075209 0 0.0 0.0 0.00 0.00 0.00 1011.2
20260509074706 49 151 0.0 0.0 0.00 0.06 0.06 99 1011.4
20260509074203 49 151 0.0 0.0 0.00 0.06 0.06 99 1011.1
20260509073659 49 136 0.0 0.0 0.00 0.06 0.06 99 1011.2
20260509073156 49 132 0.0 0.0 0.07 0.06 0.06 99 1011.1
20260509072652 49 141 0.0 0.0 0.07 0.06 0.06 99 1011.2
20260509072149 49 140 0.0 0.0 0.00 0.05 0.05 99 1011.4
20260509071646 49 150 0.0 0.0 0.00 0.05 0.05 99 1011.5
20260509071143 49 140 0.0 0.0 0.00 0.05 0.05 99 1011.4
20260509070640 49 148 0.0 0.0 0.05 0.05 0.05 99 1011.8
20260509070136 49 148 0.0 0.0 0.05 0.05 0.05 99 1011.9
20260509065632 49 148 0.0 0.0 0.00 0.04 0.04 99 1011.8
20260509065128 49 148 0.0 0.0 0.07 0.04 0.04 99 1011.8
20260509064625 49 147 0.0 0.0 0.07 0.04 0.04 99 1011.9
20260509064118 49 148 0.0 0.0 0.00 0.03 0.03 99 1012.0
20260509063615 49 148 0.0 0.0 0.00 0.03 0.03 99 1012.2
20260509063111 49 148 0.0 0.0 0.05 0.03 0.03 99 1012.2
20260509062608 49 148 0.0 0.0 0.05 0.03 0.03 99 1012.0
20260509062105 49 148 0.0 0.0 0.07 0.02 0.02 99 1012.4
20260509061602 49 148 0.0 0.0 0.07 0.02 0.02 99 1012.2
20260509061059 49 148 0.0 0.0 0.07 0.02 0.02 99 1012.3
20260509060557 0 0.0 0.0 0.00 0.00 0.00 1012.3
20260509060052 49 148 0.0 0.0 0.00 0.01 0.01 99 1012.4
20260509055548 49 148 0.0 0.0 0.00 0.01 0.01 99 1012.5
20260509055044 0 0.0 0.0 0.00 0.00 0.00 1012.3
20260509054541 0 0.0 0.0 0.00 0.00 0.00 1012.5
20260509054039 0 0.0 0.0 0.00 0.00 0.00 1012.5
20260509053538 0 0.0 0.0 0.00 0.00 0.00 1012.4
20260509053034 49 148 0.0 0.0 0.00 0.01 0.01 99 1012.5
20260509052532 49 148 0.0 0.0 0.00 0.01 0.01 99 1012.4
20260509052030 49 148 0.0 0.0 0.00 0.01 0.01 99 1012.4
20260509051527 0 0.0 0.0 0.00 0.00 0.00 1012.6
20260509051024 0 0.0 0.0 0.00 0.00 0.00 1012.4
20260509050520 50 148 0.0 0.0 0.00 0.01 0.01 99 1012.8
20260509050011 50 148 0.0 0.0 0.00 0.01 0.01 99 1012.6
20260509045509 49 148 0.0 0.0 0.00 0.01 0.01 99 1012.8